TimeEST,TemperatureF,Dew PointF,Humidity,Sea Level PressureIn,VisibilityMPH,Wind Direction,Wind SpeedMPH,Gust SpeedMPH,PrecipitationIn,Events,Conditions,WindDirDegrees,DateUTC
12:53 AM,64.9,64.0,97,29.99,10.0,Calm,Calm,-,N/A,,Partly Cloudy,0,2012-12-17 05:53:00
1:53 AM,64.0,63.0,96,29.97,6.0,SSE,5.8,-,N/A,,Partly Cloudy,160,2012-12-17 06:53:00
1:56 AM,62.6,62.6,100,29.97,6.0,SSE,5.8,-,N/A,,Partly Cloudy,160,2012-12-17 06:56:00
2:53 AM,64.9,64.0,97,29.97,6.0,Calm,Calm,-,N/A,,Scattered Clouds,0,2012-12-17 07:53:00
2:57 AM,64.4,64.4,100,29.97,6.0,Calm,Calm,-,N/A,,Scattered Clouds,0,2012-12-17 07:57:00
3:19 AM,62.6,62.6,100,29.98,2.5,Calm,Calm,-,N/A,,Partly Cloudy,0,2012-12-17 08:19:00
3:30 AM,62.6,62.6,100,29.96,2.0,SSE,3.5,-,N/A,,Mostly Cloudy,160,2012-12-17 08:30:00
3:53 AM,64.9,64.0,97,29.96,7.0,Calm,Calm,-,N/A,,Overcast,0,2012-12-17 08:53:00
4:53 AM,66.9,66.0,97,29.95,9.0,South,3.5,-,N/A,,Overcast,190,2012-12-17 09:53:00
5:09 AM,66.2,66.2,100,29.95,0.8,SW,4.6,-,N/A,,Overcast,220,2012-12-17 10:09:00
5:47 AM,66.2,66.2,100,29.95,0.0,WSW,4.6,-,N/A,,Overcast,240,2012-12-17 10:47:00
5:53 AM,66.9,66.0,97,29.94,0.0,WSW,3.5,-,N/A,,Overcast,240,2012-12-17 10:53:00
6:13 AM,66.2,66.2,100,29.96,0.0,South,3.5,-,N/A,Fog,Fog,190,2012-12-17 11:13:00
6:53 AM,66.0,66.0,100,29.96,0.0,Calm,Calm,-,N/A,Fog,Fog,0,2012-12-17 11:53:00
7:01 AM,66.2,66.2,100,29.96,0.0,Calm,Calm,-,N/A,Fog,Fog,0,2012-12-17 12:01:00
7:53 AM,66.0,66.0,100,29.96,0.0,SSE,3.5,-,N/A,Fog,Fog,160,2012-12-17 12:53:00
8:35 AM,66.2,66.2,100,29.97,0.0,SSE,5.8,-,N/A,Fog,Fog,150,2012-12-17 13:35:00
8:49 AM,66.2,66.2,100,29.97,0.0,SSE,3.5,-,N/A,Fog,Fog,160,2012-12-17 13:49:00
8:53 AM,66.9,66.0,97,29.97,0.0,South,3.5,-,N/A,Fog,Fog,190,2012-12-17 13:53:00
9:01 AM,66.2,66.2,100,29.97,0.2,SSW,5.8,-,N/A,,Overcast,200,2012-12-17 14:01:00
9:20 AM,66.2,66.2,100,29.97,1.0,South,6.9,-,N/A,,Mostly Cloudy,170,2012-12-17 14:20:00
9:29 AM,66.2,66.2,100,29.97,2.5,South,8.1,-,N/A,,Mostly Cloudy,180,2012-12-17 14:29:00
9:49 AM,66.2,66.2,100,29.98,6.0,Variable,3.5,-,N/A,,Mostly Cloudy,0,2012-12-17 14:49:00
9:53 AM,66.0,64.9,96,29.98,6.0,South,3.5,-,N/A,,Mostly Cloudy,170,2012-12-17 14:53:00
9:57 AM,66.2,66.2,100,29.98,7.0,Calm,Calm,-,N/A,,Mostly Cloudy,0,2012-12-17 14:57:00
10:53 AM,73.9,64.0,71,29.95,10.0,SSW,6.9,-,N/A,,Mostly Cloudy,210,2012-12-17 15:53:00
11:53 AM,77.0,64.9,66,29.93,10.0,SSW,8.1,-,N/A,,Mostly Cloudy,210,2012-12-17 16:53:00
12:53 PM,80.1,64.9,60,29.91,10.0,SSW,12.7,-,N/A,,Mostly Cloudy,210,2012-12-17 17:53:00
1:53 PM,81.0,62.1,52,29.88,10.0,SW,9.2,-,N/A,,Mostly Cloudy,230,2012-12-17 18:53:00
2:53 PM,80.1,62.1,54,29.87,10.0,SW,11.5,-,N/A,,Mostly Cloudy,220,2012-12-17 19:53:00
3:53 PM,80.1,61.0,52,29.88,10.0,West,12.7,-,N/A,,Mostly Cloudy,260,2012-12-17 20:53:00
4:53 PM,79.0,60.1,52,29.90,10.0,West,10.4,-,N/A,,Mostly Cloudy,270,2012-12-17 21:53:00
7:53 PM,72.0,60.1,66,29.94,10.0,WSW,5.8,-,N/A,,Mostly Cloudy,250,2012-12-18 00:53:00
8:53 PM,69.1,61.0,75,29.95,10.0,SW,4.6,-,N/A,,Mostly Cloudy,230,2012-12-18 01:53:00
9:53 PM,66.9,62.1,84,29.94,10.0,South,5.8,-,N/A,,Mostly Cloudy,190,2012-12-18 02:53:00
10:53 PM,64.9,63.0,93,29.93,10.0,South,3.5,-,N/A,,Partly Cloudy,190,2012-12-18 03:53:00
11:53 PM,66.0,64.0,93,29.88,10.0,SSE,11.5,-,N/A,,Partly Cloudy,160,2012-12-18 04:53:00